彩虹 7星 (RADUGA 7)

导读 | 豆包AI

RADUGA 7(彩虹7星)是独联体(CIS)发射的军用通信卫星,隶属于俄罗斯“彩虹”(Raduga)地球静止轨道通信卫星系列。由俄罗斯普里克拉德诺伊·梅哈尼基设计局研制,1980年10月5日发射升空。卫星具备高抗干扰能力,可支持加密数据传输,为东半球(极区除外)提供军事通信及民用电视、电话电报服务,在俄罗斯国防通信体系中发挥重要作用。

基本信息
目录编号:
12003
目录名称:
RADUGA 7
国际标识:
1980-081A
轨道中心:
EARTH
卫星名称:
彩虹 7星
卫星全名:
彩虹 7星 (RADUGA 7)
卫星状态:
在轨 (已飞行16617 天)
发射日期:
1980-10-05 UTC
国别 :
俄罗斯(独联体) (CIS)
星等 :
--
轨道信息
数据来源 国际轨道数据 AOE轨道数据
星历时间 2026-04-04T03:27:02+0800
8小时前
查看轨道信息
2026-04-01T16:00:00+0800
2天前
查看轨道信息
半长轴 42147.86km 42147.636km
偏心率 0.0011324 0.0011192
轨道倾角 6.130° 6.136°
近地点辐角 321.202° 321.010°
升交点赤经 289.886° 289.905°
平近点角 185.878° 11.314°
近地点 35721.994km 35722.327km
远地点 35817.452km 35816.671km
周期 1435.235分钟 1435.224分钟
每日圈数 1.00332 1.003328
详细信息
平衡模式:
三轴稳定
覆盖范围:
全球
运营商:
俄罗斯国家航天集团
运营商所在国:
俄罗斯
制造商(研发单位):
普里克拉德诺伊·梅哈尼基设计局
制造商所在国:
俄罗斯联邦
使用方式:
暂无
卫星简介
彩虹卫星(Raduga, Gran)是苏联用于军事和通信目的的一系列地球静止通信卫星。彩虹卫星旨在支持军事通信、Orbita地面电视网络,并在整个东半球(极地地区除外)提供电话和电报通信。该卫星已退役。
2D轨道图
3D轨道图
轨道高度分析图
轨道倾角分析图
轨道综合分析图
查看轨道综合分析图